Terminal Aerodrome Forecast
Issued by NWS

Home | Current Version | Previous Version | Text Only | Print | Product List | Glossary On
Versions: 1 2 3 4 5 6 7 8 9 10 11 12 13 14 15 16 17 18 19 20 21 22 23 24 25 26 27 28 29 30 31 32 33 34 35 36 37 38 39 40 41 42 43 44 45 46 47 48 49 50
000
FTUS41 KALY 231123
TAFPSF
TAF
KPSF 231123Z 2312/2412 06008G16KT P6SM VCSH OVC015
     FM231600 07013G22KT P6SM BKN015 OVC025
     FM240100 06016G28KT 2SM -SNPL OVC008=

USA.gov is the U.S. government's official web portal to all federal, state and local government web resources and services.